(69720) = 1998 HW120 = 1999 RP233

Discovered at Socorro on 1998-04-23 by LINEAR.

Orbit

Orbit type: Main Belt

Note: WebGL enabled browser required.

epoch2024-03-31.0
epoch JD2460400.5
perihelion date2021-11-09.97239
perihelion JD2459528.47239
argument of perihelion (°)293.25717
ascending node (°)109.75443
inclination (°)8.79518
eccentricity0.0169391
perihelion distance (AU)2.3147275
Tisserand w.r.t. Jupiter3.5
ΔV w.r.t. Earth (km/sec)9.9
semimajor axis (AU)2.3546126
mean anomaly (°)237.87833
mean daily motion (°/day)0.27278760
aphelion distance (AU)2.394
period (years)3.61
P-vector [x]0.72104815
P-vector [y]0.67838596
P-vector [z]0.14100374
Q-vector [x]-0.67777660
Q-vector [y]0.64830125
Q-vector [z]0.34687804
absolute magnitude15.4
phase slope0.15
uncertainty0
referenceMPEC 2024-E23
observations used1774
oppositions19
arc length (days)9202
first opposition used1998
last opposition used2023
residual rms (arc-secs)0.64
perturbers coarse indicatorM-v
perturbers precise indicator003Ek
first observation date used1998-04-21.0
last observation date used2023-07-01.0
computer nameMPCLINUX
JD of orbit computation2456909.296355
perihelion JD uncertainty (days)5.3840E-04
argument of perihelion uncertainty (°)1.4932E-04
ascending node uncertainty (°)3.0026E-05
inclination uncertainty (°)4.8793E-06
eccentricity uncertainty 4.1380E-08
perihelion distance uncertainty (AU)1.0028E-07
Minimum Orbit Intersection Distances (in AU)
for orbit epoch: 2460400.5, reference: E2024-E23
Mercury1.92075
Venus1.59741
Earth1.33966
Mars0.70397
Jupiter2.66485
Saturn6.71553
Uranus16.0812
Neptune27.5252

Observations

1814 total observations over interval: 1998 04 21.30979 – 2023 07 01.189873
These data are available for download (format description).

Date (UT) J2000 RA J2000 Dec Magn Location Ref
1998 04 21.30979 14 51 19.09 -01 24 11.8 18.5   704 – Lincoln Laboratory ETS, New Mexico MPS 16395
1998 04 21.33011 14 51 17.90 -01 24 07.0 18.7   704 – Lincoln Laboratory ETS, New Mexico MPS 16395
1998 04 21.35025 14 51 16.92 -01 24 02.2 19.3   704 – Lincoln Laboratory ETS, New Mexico MPS 16395
1998 04 21.37098 14 51 15.65 -01 23 56.7 18.7   704 – Lincoln Laboratory ETS, New Mexico MPS 16395
1998 04 23.34671 14 49 27.61 -01 15 11.3 18.7   704 – Lincoln Laboratory ETS, New Mexico MPS 1409
1998 04 23.36561 14 49 26.71 -01 15 05.8 18.9   704 – Lincoln Laboratory ETS, New Mexico MPS 1409
1998 04 23.38440 14 49 25.51 -01 15 01.1 18.8   704 – Lincoln Laboratory ETS, New Mexico MPS 1409
1998 04 23.40388 14 49 24.42 -01 14 56.5 18.6   704 – Lincoln Laboratory ETS, New Mexico MPS 1409
1998 04 24.37000 14 48 30.61 -01 10 50.5 18.5   704 – Lincoln Laboratory ETS, New Mexico MPS 1409
1998 04 24.38879 14 48 29.52 -01 10 45.4 19.0   704 – Lincoln Laboratory ETS, New Mexico MPS 1409
1998 04 24.40759 14 48 28.35 -01 10 42.9 19.2   704 – Lincoln Laboratory ETS, New Mexico MPS 1409
1998 04 24.42636 14 48 27.43 -01 10 36.0 19.2   704 – Lincoln Laboratory ETS, New Mexico MPS 1409
1998 04 25.49855 14 47 27.11 -01 06 11.5 19.1 V 566 – Haleakala-NEAT/GEODSS MPS 17472
1998 04 25.51916 14 47 25.91 -01 06 06.3 19.2 V 566 – Haleakala-NEAT/GEODSS MPS 17472
1998 04 25.54150 14 47 24.55 -01 06 01.2 19.1 V 566 – Haleakala-NEAT/GEODSS MPS 17472
1998 05 01.32697 14 41 51.13 -00 45 04.9 18.6 R 699 – Lowell Observatory-LONEOS MPS 17472
1998 05 01.34185 14 41 50.23 -00 45 03.0   699 – Lowell Observatory-LONEOS MPS 17472
1998 05 01.35675 14 41 49.36 -00 45 00.9   699 – Lowell Observatory-LONEOS MPS 17472
1999 09 04.29990 00 15 10.90 -12 50 45.6 18.5 R 699 – Lowell Observatory-LONEOS MPS 59552
1999 09 04.31521 00 15 10.26 -12 50 55.3   699 – Lowell Observatory-LONEOS MPS 59552
1999 09 04.33053 00 15 09.51 -12 51 02.8   699 – Lowell Observatory-LONEOS MPS 59552
1999 09 08.30549 00 12 13.79 -13 26 37.9 18.8 R 703 – Catalina Sky Survey MPS 15214
1999 09 08.31581 00 12 13.26 -13 26 44.0 18.3 R 703 – Catalina Sky Survey MPS 15214
1999 09 08.32590 00 12 12.82 -13 26 48.9 18.4 R 703 – Catalina Sky Survey MPS 15214
1999 09 08.33585 00 12 12.41 -13 26 53.0 19.0 R 703 – Catalina Sky Survey MPS 15214
1999 09 13.28633 00 08 11.23 -14 09 46.4 18.8   704 – Lincoln Laboratory ETS, New Mexico MPS 15214
1999 09 13.29757 00 08 10.69 -14 09 53.1 18.8   704 – Lincoln Laboratory ETS, New Mexico MPS 15214
1999 09 13.30891 00 08 10.13 -14 09 57.5 19.3   704 – Lincoln Laboratory ETS, New Mexico MPS 15214
1999 09 13.32055 00 08 09.51 -14 10 04.2 19.5   704 – Lincoln Laboratory ETS, New Mexico MPS 15214
1999 10 04.24748 23 49 52.53 -16 25 55.5 18.9 R 703 – Catalina Sky Survey MPS 16508
1999 10 04.26017 23 49 51.80 -16 25 58.4 18.8 R 703 – Catalina Sky Survey MPS 16508
1999 10 04.27285 23 49 51.21 -16 26 00.6 18.7 R 703 – Catalina Sky Survey MPS 16508
1999 10 04.28549 23 49 50.57 -16 26 03.6 18.6 R 703 – Catalina Sky Survey MPS 16508
2000 11 27.43701 09 38 20.50 +15 38 06.5 19.2   704 – Lincoln Laboratory ETS, New Mexico MPS 22168
2000 11 27.45168 09 38 21.15 +15 38 06.7 20.1   704 – Lincoln Laboratory ETS, New Mexico MPS 22168
2000 11 27.46645 09 38 21.81 +15 38 07.1 19.7   704 – Lincoln Laboratory ETS, New Mexico MPS 22168
2000 11 27.48113 09 38 22.39 +15 38 07.6 19.6   704 – Lincoln Laboratory ETS, New Mexico MPS 22168
2000 11 27.49582 09 38 23.18 +15 38 06.3 20.0   704 – Lincoln Laboratory ETS, New Mexico MPS 22168
2000 12 22.39436 09 49 28.26 +16 32 56.2 19.0 R 699 – Lowell Observatory-LONEOS MPS 23555
2000 12 22.41797 09 49 28.32 +16 33 02.9   699 – Lowell Observatory-LONEOS MPS 23555
2000 12 22.44153 09 49 28.65 +16 33 09.0   699 – Lowell Observatory-LONEOS MPS 23555
2000 12 22.46791 09 49 28.49 +16 33 16.6   699 – Lowell Observatory-LONEOS MPS 23555
2000 12 30.37764 09 49 13.11 +17 15 27.5 18.8   704 – Lincoln Laboratory ETS, New Mexico MPS 23555
2000 12 30.39272 09 49 12.94 +17 15 33.6 19.0   704 – Lincoln Laboratory ETS, New Mexico MPS 23555
2000 12 30.40901 09 49 12.68 +17 15 39.8 19.4   704 – Lincoln Laboratory ETS, New Mexico MPS 23555
2000 12 30.42389 09 49 12.54 +17 15 44.3 19.4   704 – Lincoln Laboratory ETS, New Mexico MPS 23555
2000 12 30.43885 09 49 12.35 +17 15 50.4 18.9   704 – Lincoln Laboratory ETS, New Mexico MPS 23555
2001 01 04.37981 09 48 01.85 +17 48 16.5 19.0   704 – Lincoln Laboratory ETS, New Mexico MPS 23555
2001 01 04.39498 09 48 01.48 +17 48 22.9 19.3   704 – Lincoln Laboratory ETS, New Mexico MPS 23555
2001 01 04.41012 09 48 01.20 +17 48 28.8 19.1   704 – Lincoln Laboratory ETS, New Mexico MPS 23555
2001 01 04.42527 09 48 00.93 +17 48 35.5 19.6   704 – Lincoln Laboratory ETS, New Mexico MPS 23555
2001 01 04.44045 09 48 00.62 +17 48 41.7 19.1   704 – Lincoln Laboratory ETS, New Mexico MPS 23555
2001 01 19.33601 09 39 57.35 +19 49 10.0 18.5   704 – Lincoln Laboratory ETS, New Mexico MPS 24854
2001 01 19.35210 09 39 56.64 +19 49 19.5 18.4   704 – Lincoln Laboratory ETS, New Mexico MPS 24854
2001 01 19.36748 09 39 55.89 +19 49 25.9 18.3   704 – Lincoln Laboratory ETS, New Mexico MPS 24854
2001 01 19.38287 09 39 55.12 +19 49 34.8 18.6   704 – Lincoln Laboratory ETS, New Mexico MPS 24854
2001 01 19.39827 09 39 54.42 +19 49 42.8 18.0   704 – Lincoln Laboratory ETS, New Mexico MPS 24854
2001 02 01.32576 09 28 32.62 +21 47 01.4 17.5   704 – Lincoln Laboratory ETS, New Mexico MPS 24854
2001 02 01.34071 09 28 31.73 +21 47 09.5 17.5   704 – Lincoln Laboratory ETS, New Mexico MPS 24854
2001 02 01.35557 09 28 30.83 +21 47 16.9 17.6   704 – Lincoln Laboratory ETS, New Mexico MPS 24854
2001 02 01.37043 09 28 29.94 +21 47 25.4 17.2   704 – Lincoln Laboratory ETS, New Mexico MPS 24854
2001 02 01.38529 09 28 29.07 +21 47 33.3 17.6   704 – Lincoln Laboratory ETS, New Mexico MPS 24854
2001 02 02.27078 09 27 37.25 +21 55 26.0 17.5 R 699 – Lowell Observatory-LONEOS MPS 26370
2001 02 02.29951 09 27 35.43 +21 55 41.3   699 – Lowell Observatory-LONEOS MPS 26370
2001 02 02.32769 09 27 33.72 +21 55 56.7   699 – Lowell Observatory-LONEOS MPS 26370
2001 02 02.35601 09 27 32.02 +21 56 10.9   699 – Lowell Observatory-LONEOS MPS 26370
2001 02 03.31480 09 26 35.26 +22 04 39.3 18.6   704 – Lincoln Laboratory ETS, New Mexico MPS 24854
2001 02 03.32981 09 26 34.29 +22 04 47.5 18.9   704 – Lincoln Laboratory ETS, New Mexico MPS 24854
2001 02 03.34465 09 26 33.25 +22 04 54.7 19.3   704 – Lincoln Laboratory ETS, New Mexico MPS 24854
2001 02 03.35949 09 26 32.44 +22 05 04.4 18.7   704 – Lincoln Laboratory ETS, New Mexico MPS 24854
2001 02 03.37434 09 26 31.51 +22 05 11.3 18.8   704 – Lincoln Laboratory ETS, New Mexico MPS 24855
2001 02 17.23894 09 12 49.14 +23 54 50.2 18.4   704 – Lincoln Laboratory ETS, New Mexico MPS 26370
2001 02 17.25292 09 12 48.30 +23 54 56.2 18.5   704 – Lincoln Laboratory ETS, New Mexico MPS 26370
2001 02 17.26681 09 12 47.46 +23 55 01.4 18.6   704 – Lincoln Laboratory ETS, New Mexico MPS 26370
2001 02 17.28066 09 12 46.66 +23 55 07.4 18.4   704 – Lincoln Laboratory ETS, New Mexico MPS 26370
2001 02 17.29458 09 12 45.88 +23 55 12.8 18.3   704 – Lincoln Laboratory ETS, New Mexico MPS 26370
2001 03 03.23694 09 01 31.72 +25 09 37.1 18.4   704 – Lincoln Laboratory ETS, New Mexico MPS 27382
2001 03 03.24990 09 01 31.10 +25 09 41.8 18.2   704 – Lincoln Laboratory ETS, New Mexico MPS 27382
2001 03 03.26283 09 01 30.63 +25 09 44.3 18.2   704 – Lincoln Laboratory ETS, New Mexico MPS 27382
2001 03 03.27577 09 01 30.09 +25 09 48.9 18.2   704 – Lincoln Laboratory ETS, New Mexico MPS 27382
2001 03 03.28923 09 01 29.54 +25 09 51.7 18.1   704 – Lincoln Laboratory ETS, New Mexico MPS 27382
2002 06 10.32705 18 12 05.52 -17 29 42.6 18.4   704 – Lincoln Laboratory ETS, New Mexico MPS 58670
2002 06 10.34082 18 12 04.74 -17 29 45.6 18.2   704 – Lincoln Laboratory ETS, New Mexico MPS 58670
2002 06 10.36957 18 12 02.92 -17 29 51.9 18.1   704 – Lincoln Laboratory ETS, New Mexico MPS 58670
2002 06 18.29885 18 04 05.96 -17 58 31.3 17.2   704 – Lincoln Laboratory ETS, New Mexico MPS 56823
2002 06 18.32526 18 04 04.26 -17 58 37.4 17.8   704 – Lincoln Laboratory ETS, New Mexico MPS 56823
